This demonstration page uses our WeatherBlox Daily Observations layout. Learn more.

Left ArrowRight Arrow

Hourly Observations for May 15, 2022

Temp ( °F °C ) Dew Point ( °F °C ) Humidity (%) Winds ( mph kmh ) Pressure ( in mb ) Visibility ( mi km ) Precip ( " mm )
12:56 am 00:56 Mostly Cloudy 60 15.8 55 12.7 82 82 Calm 30.02 1017 10 16 0.00 0.00
1:56 am 01:56 Clear 58 14.6 54 12.3 86 86 NNW 6 9 30.02 1017 10 16 0.00 0.00
2:56 am 02:56 Mostly Cloudy 60 15.3 49 9.6 69 69 N 5 7 30.01 1016 10 16 0.00 0.00
3:56 am 03:56 Clear 60 15.5 46 7.8 60 60 N 6 9 30.00 1016 10 16 0.00 0.00
4:56 am 04:56 Mostly Cloudy 60 15.4 44 6.7 56 56 E 3 6 30.00 1016 10 16 0.00 0.00
5:56 am 05:56 Mostly Cloudy with Light Showers 57 14 50 9.8 76 76 SSE 7 11 30.01 1016 10 16 0.00 0.00
6:56 am 06:56 Cloudy 58 14.2 49 9.4 73 73 SE 3 6 30.02 1017 10 16 0.00 0.00
7:56 am 07:56 Mostly Cloudy 60 15.5 50 9.8 69 69 ENE 3 6 30.02 1017 10 16 0.00 0.00
8:56 am 08:56 Cloudy with Light Showers 62 16.7 50 9.9 64 64 Calm 30.04 1017 10 16 0.00 0.00
9:56 am 09:56 Cloudy 62 16.4 48 8.9 61 61 N 3 6 30.09 1019 10 16 0.00 0.00
10:56 am 10:56 Mostly Cloudy 66 18.7 44 6.5 45 45 N 15 24 30.09 1019 10 16 0.00 0.00
11:56 am 11:56 Mostly Cloudy 66 19 46 8 49 49 N 14 22 30.11 1020 10 16 0.00 0.00
12:56 pm 12:56 Mostly Cloudy 67 19.3 50 9.8 54 54 N 10 17 30.11 1020 10 16 0.00 0.00
1:56 pm 13:56 Mostly Cloudy 65 18.4 50 10.2 59 59 N 9 15 30.10 1019 10 16 0.00 0.00
2:56 pm 14:56 Partly Cloudy 69 20.4 49 9.3 49 49 N 8 13 30.08 1019 10 16 0.00 0.00
3:56 pm 15:56 undefined 70 21.3 49 9.2 46 46 N 10 17 30.07 1018 10 16 0.00 0.00
4:56 pm 16:56 Sunny 71 21.8 45 7.2 39 39 N 5 7 30.04 1017 10 16 0.00 0.00
5:56 pm 17:56 Sunny 73 22.6 46 7.6 38 38 Calm 30.04 1017 10 16 0.00 0.00
6:56 pm 18:56 Mostly Sunny 71 21.7 44 6.4 37 37 WNW 6 9 30.03 1017 10 16 0.00 0.00
7:56 pm 19:56 Mostly Sunny 70 21 44 6.5 39 39 W 5 7 30.03 1017 10 16 0.00 0.00
8:56 pm 20:56 Mostly Clear 66 18.9 45 7 46 46 WNW 1 2 30.04 1017 10 16 0.00 0.00
9:56 pm 21:56 Mostly Clear 64 17.7 45 7.4 51 51 WNW 7 11 30.06 1018 10 16 0.00 0.00
10:56 pm 22:56 Mostly Clear 62 16.5 45 7.4 55 55 W 7 11 30.04 1017 10 16 0.00 0.00
11:56 pm 23:56 Clear 60 15.4 46 7.9 61 61 NW 6 9 30.04 1017 9 14 0.00 0.00

Powered by AerisWeather